VLG6358 LEAL-LEBL

Flight info

Callsign VLG6358
Flight time N/A
Altitude 30000
Route MITOS N851 IZA N856 MARTA
Aircraft A20N/M-SDE2E3FGHIRWXY/LB1

Departure

Time 2026-05-04 15:00
Airport Alicante-Elche Miguel Hernández Airport (LEAL)

Arrival

Time N/A
Airport Josep Tarradellas Barcelona-El Prat Airport (LEBL)
Time Latitude Longitude Altitude Speed Heading
2026-05-04 14:45 38.28589 -0.55719 103 ft 0 kts 11°
2026-05-04 14:52 38.28584 -0.55721 103 ft 2 kts 11°
2026-05-04 14:52 38.28560 -0.55727 102 ft 5 kts 349°
2026-05-04 14:52 38.28523 -0.55717 101 ft 6 kts 317°
2026-05-04 14:53 38.28514 -0.55708 101 ft 0 kts 295°
2026-05-04 14:55 38.28524 -0.55757 103 ft 11 kts 281°
2026-05-04 14:56 38.28542 -0.55900 106 ft 21 kts 279°
2026-05-04 14:56 38.28523 -0.56011 109 ft 4 kts 194°
2026-05-04 14:56 38.28460 -0.56030 110 ft 14 kts 194°
2026-05-04 14:56 38.28439 -0.56135 110 ft 16 kts 284°
2026-05-04 14:57 38.28461 -0.56307 112 ft 23 kts 285°
2026-05-04 14:57 38.28491 -0.56529 119 ft 27 kts 284°
2026-05-04 14:57 38.28530 -0.56783 122 ft 21 kts 279°
2026-05-04 14:57 38.28546 -0.56910 133 ft 17 kts 280°
2026-05-04 14:58 38.28572 -0.57075 140 ft 21 kts 282°
2026-05-04 14:58 38.28598 -0.57279 148 ft 25 kts 280°
2026-05-04 14:58 38.28594 -0.57412 153 ft 2 kts 223°
2026-05-04 14:58 38.28555 -0.57426 154 ft 10 kts 189°
2026-05-04 14:59 38.28456 -0.57429 155 ft 17 kts 147°
2026-05-04 14:59 38.28425 -0.57259 146 ft 29 kts 96°
2026-05-04 14:59 38.28193 -0.55616 99 ft 149 kts 101°
2026-05-04 15:00 38.27981 -0.54187 360 ft 167 kts 99°
2026-05-04 15:00 38.27924 -0.52768 954 ft 157 kts 83°
2026-05-04 15:00 38.28196 -0.51434 1476 ft 166 kts 67°
2026-05-04 15:01 38.29434 -0.48292 2757 ft 218 kts 60°
2026-05-04 15:01 38.30268 -0.46565 3579 ft 240 kts 57°
2026-05-04 15:01 38.31229 -0.44704 4415 ft 260 kts 56°
2026-05-04 15:01 38.32254 -0.42745 5415 ft 268 kts 56°
2026-05-04 15:02 38.33230 -0.40734 6505 ft 273 kts 64°
2026-05-04 15:02 38.33896 -0.38447 7566 ft 277 kts 72°
2026-05-04 15:02 38.34439 -0.36063 8615 ft 282 kts 75°
2026-05-04 15:02 38.34940 -0.33622 9642 ft 286 kts 75°
2026-05-04 15:03 38.35442 -0.31132 10550 ft 297 kts 75°
2026-05-04 15:03 38.35990 -0.28503 10928 ft 323 kts 73°
2026-05-04 15:03 38.36846 -0.25700 11108 ft 356 kts 66°
2026-05-04 15:03 38.37859 -0.22709 11622 ft 375 kts 67°
2026-05-04 15:04 38.38902 -0.19605 12513 ft 382 kts 67°
2026-05-04 15:04 38.39940 -0.16497 13418 ft 389 kts 67°
2026-05-04 15:04 38.41012 -0.13278 14266 ft 396 kts 67°
2026-05-04 15:04 38.42086 -0.10042 15115 ft 402 kts 68°
2026-05-04 15:05 38.43182 -0.06736 15941 ft 408 kts 68°
2026-05-04 15:05 38.44307 -0.03341 16764 ft 415 kts 68°
2026-05-04 15:05 38.45424 0.00041 17560 ft 422 kts 68°
2026-05-04 15:05 38.46552 0.03525 18364 ft 428 kts 68°
2026-05-04 15:06 38.47689 0.07076 19070 ft 434 kts 68°
2026-05-04 15:06 38.48840 0.10680 19778 ft 439 kts 69°
2026-05-04 15:06 38.50007 0.14330 20462 ft 445 kts 69°
2026-05-04 15:07 38.52367 0.21706 21792 ft 457 kts 69°
2026-05-04 15:07 38.53578 0.25496 22425 ft 462 kts 69°
2026-05-04 15:07 38.54801 0.29328 23052 ft 468 kts 69°
2026-05-04 15:07 38.56039 0.33212 23628 ft 473 kts 69°
2026-05-04 15:08 38.57271 0.37086 24160 ft 477 kts 69°
2026-05-04 15:08 38.58526 0.41033 24689 ft 481 kts 69°
2026-05-04 15:08 38.59795 0.45033 25178 ft 485 kts 69°
2026-05-04 15:08 38.61065 0.49037 25648 ft 488 kts 69°
2026-05-04 15:09 38.62348 0.53091 26058 ft 492 kts 69°
2026-05-04 15:09 38.63619 0.57116 26471 ft 495 kts 69°
2026-05-04 15:09 38.64912 0.61211 26882 ft 498 kts 69°
2026-05-04 15:10 38.67518 0.69492 27689 ft 503 kts 69°
2026-05-04 15:10 38.68814 0.73620 28074 ft 506 kts 69°
2026-05-04 15:10 38.71459 0.82058 28808 ft 512 kts 70°
2026-05-04 15:11 38.72783 0.86292 29156 ft 514 kts 70°
2026-05-04 15:11 38.74116 0.90561 29503 ft 517 kts 70°
2026-05-04 15:11 38.75453 0.94851 29828 ft 520 kts 70°
2026-05-04 15:12 38.78161 1.03563 29932 ft 537 kts 70°
2026-05-04 15:12 38.80948 1.12553 29935 ft 551 kts 70°
2026-05-04 15:13 38.83801 1.21781 29941 ft 558 kts 70°
2026-05-04 15:13 38.86653 1.31039 29938 ft 561 kts 70°
2026-05-04 15:13 38.88338 1.35563 29938 ft 563 kts 59°
2026-05-04 15:14 38.90595 1.39644 29943 ft 554 kts 48°
2026-05-04 15:14 38.93310 1.43080 29935 ft 543 kts 37°
2026-05-04 15:14 38.96336 1.45738 29941 ft 523 kts 25°
2026-05-04 15:14 38.99584 1.47589 29944 ft 501 kts 13°
2026-05-04 15:15 39.02959 1.48578 29942 ft 494 kts
2026-05-04 15:15 39.06381 1.48693 29943 ft 485 kts 348°
2026-05-04 15:15 39.09651 1.47956 29937 ft 471 kts 335°
2026-05-04 15:16 39.18846 1.43914 29948 ft 475 kts 340°
2026-05-04 15:17 39.28790 1.42130 29939 ft 483 kts 347°
2026-05-04 15:17 39.38805 1.40857 29929 ft 483 kts 347°
2026-05-04 15:18 39.45510 1.39984 29926 ft 483 kts 347°
2026-05-04 15:19 39.55510 1.38666 29915 ft 483 kts 347°
2026-05-04 15:19 39.65539 1.37341 29921 ft 483 kts 347°
2026-05-04 15:20 39.72249 1.36452 29914 ft 483 kts 347°
2026-05-04 15:20 39.78918 1.35567 29914 ft 483 kts 347°
2026-05-04 15:21 39.85620 1.34676 29913 ft 483 kts 347°
2026-05-04 15:22 39.95654 1.33338 29906 ft 484 kts 347°
2026-05-04 15:22 40.05682 1.31997 29902 ft 484 kts 347°
2026-05-04 15:23 40.12392 1.31097 29907 ft 484 kts 347°
2026-05-04 15:23 40.15708 1.30651 29803 ft 484 kts 347°
2026-05-04 15:23 40.19072 1.30200 29522 ft 482 kts 347°
2026-05-04 15:24 40.25709 1.29309 28770 ft 476 kts 347°
2026-05-04 15:24 40.32340 1.29240 27557 ft 482 kts
2026-05-04 15:25 40.35532 1.30436 26977 ft 484 kts 18°
2026-05-04 15:25 40.38517 1.32510 26424 ft 484 kts 32°
2026-05-04 15:25 40.41071 1.35365 26023 ft 478 kts 47°
2026-05-04 15:26 40.44503 1.42757 25884 ft 481 kts 66°
2026-05-04 15:26 40.45968 1.46704 25605 ft 480 kts 64°
2026-05-04 15:26 40.49378 1.54293 24185 ft 485 kts 57°
2026-05-04 15:27 40.51267 1.58012 23316 ft 488 kts 56°
2026-05-04 15:27 40.55061 1.65242 22022 ft 476 kts 55°
2026-05-04 15:28 40.58787 1.72337 20781 ft 464 kts 55°
2026-05-04 15:28 40.60605 1.75814 20167 ft 459 kts 55°
2026-05-04 15:28 40.64163 1.82640 18994 ft 448 kts 55°
2026-05-04 15:29 40.65927 1.86031 18421 ft 443 kts 55°
2026-05-04 15:30 40.74563 1.96227 16899 ft 397 kts 26°
2026-05-04 15:30 40.81848 2.01461 16766 ft 387 kts 26°
2026-05-04 15:31 40.86430 2.04760 16516 ft 362 kts 26°
2026-05-04 15:31 40.88624 2.06336 16303 ft 355 kts 26°
2026-05-04 15:32 40.95088 2.11029 15454 ft 352 kts 27°
2026-05-04 15:32 40.99316 2.14229 14648 ft 347 kts 28°
2026-05-04 15:33 41.03478 2.17375 13850 ft 343 kts 28°
2026-05-04 15:34 41.09621 2.22009 12611 ft 335 kts 28°
2026-05-04 15:34 41.11644 2.23535 12197 ft 333 kts 28°
2026-05-04 15:34 41.15646 2.26561 11392 ft 328 kts 28°
2026-05-04 15:35 41.18943 2.30550 10575 ft 323 kts 58°
2026-05-04 15:35 41.20149 2.33047 10325 ft 315 kts 58°
2026-05-04 15:35 41.21318 2.35442 10218 ft 302 kts 58°
2026-05-04 15:36 41.23586 2.39902 9887 ft 284 kts 46°
2026-05-04 15:36 41.25175 2.41355 9505 ft 280 kts 19°
2026-05-04 15:36 41.27073 2.41730 9018 ft 274 kts 350°
2026-05-04 15:37 41.28848 2.40985 8563 ft 265 kts 328°
2026-05-04 15:37 41.30490 2.39871 8135 ft 267 kts 339°
2026-05-04 15:37 41.32322 2.39669 7744 ft 270 kts
2026-05-04 15:37 41.34046 2.40611 7335 ft 269 kts 37°
2026-05-04 15:38 41.35238 2.42487 6951 ft 265 kts 67°
2026-05-04 15:38 41.35754 2.44816 6516 ft 261 kts 82°
2026-05-04 15:38 41.36096 2.47187 6148 ft 259 kts 80°
2026-05-04 15:38 41.36552 2.49500 5765 ft 258 kts 75°
2026-05-04 15:39 41.37136 2.51707 5563 ft 245 kts 70°
2026-05-04 15:39 41.37761 2.53721 5305 ft 229 kts 69°
2026-05-04 15:39 41.39792 2.56710 4990 ft 228 kts 15°
2026-05-04 15:40 41.41348 2.56734 4991 ft 225 kts 341°
2026-05-04 15:40 41.42634 2.55634 4990 ft 219 kts 306°
2026-05-04 15:40 41.43210 2.53831 4995 ft 210 kts 271°
2026-05-04 15:40 41.42899 2.51982 4993 ft 206 kts 237°
2026-05-04 15:41 41.41967 2.50567 4995 ft 206 kts 221°
2026-05-04 15:41 41.40904 2.49281 4955 ft 202 kts 224°
2026-05-04 15:41 41.39909 2.48315 5425 ft 152 kts 200°
2026-05-04 15:41 41.39053 2.48436 5751 ft 132 kts 148°
2026-05-04 15:42 41.38295 2.49315 6359 ft 137 kts 139°
2026-05-04 15:42 41.37507 2.50414 6209 ft 206 kts 139°
2026-05-04 15:42 41.36223 2.51943 4993 ft 291 kts 146°
2026-05-04 15:42 41.34286 2.52784 4811 ft 303 kts 180°
2026-05-04 15:43 41.32275 2.51854 4414 ft 319 kts 217°
2026-05-04 15:43 41.31087 2.49376 4245 ft 326 kts 254°
2026-05-04 15:43 41.31047 2.47383 4308 ft 326 kts 277°
2026-05-04 15:43 41.32447 2.43893 4613 ft 321 kts 304°
2026-05-04 15:44 41.33323 2.42298 4709 ft 319 kts 303°
2026-05-04 15:44 41.34933 2.39314 4782 ft 280 kts 303°
2026-05-04 15:44 41.35684 2.37912 4795 ft 270 kts 304°